Location: Unspecified
(0.0000°N, 0.0000°E)
Time: 20:54:10
(UTC+00:00)

COSMOS 2251 DEB - Visible Passes

Search period start: 12 January 2025 00:00
Search period end: 22 January 2025 00:00
Orbit: 632 x 843 km, 74.0° (Epoch: 07 January)

Date Brightness Start Highest point End Pass type
(mag) Time Alt. Az. Time Alt. Az. Time Alt. Az.
12 Jan ? 19:28:02 10° N 19:32:32 65° ENE 19:37:17 10° SSE visible
13 Jan ? 18:42:49 10° NNE 18:46:20 22° ENE 18:49:58 10° SE visible
13 Jan ? 20:24:36 10° WNW 20:27:27 16° WSW 20:30:22 10° SW visible
14 Jan ? 19:36:43 10° NNW 19:41:06 46° WSW 19:45:44 10° S visible
15 Jan ? 18:50:18 10° N 18:54:49 58° ENE 18:59:34 10° SSE visible
16 Jan ? 19:46:28 10° WNW 19:49:39 18° WSW 19:52:58 10° SSW visible
17 Jan ? 18:58:46 10° NNW 19:03:16 52° WSW 19:08:02 10° S visible
19 Jan ? 19:08:13 10° NW 19:11:43 21° WSW 19:15:23 10° SSW visible
21 Jan ? 05:08:25 10° SSE 05:12:23 20° ESE 05:16:11 10° ENE visible
